Regional Weather Roundup
Issued by NWS

Home | Current Version | Previous Version | Text Only | Print | Product List | Glossary Off
Versions: 1 2 3 4 5 6 7 8 9 10 11 12 13 14 15 16 17 18 19 20 21 22 23 24 25 26 27 28 29 30 31 32 33 34 35 36 37 38 39 40 41 42 43 44 45 46 47 48 49 50

000
ASUS44 KMEG 190900
RWRTN
TENNESSEE HOURLY STATE WEATHER ROUNDUP
NATIONAL WEATHER SERVICE MEMPHIS TN
400 AM CDT SAT APR 19 2014

TNZ002-004-019-021-049-052-054-088>092-191000-
WEST TENNESSEE

CITY           SKY/WX    TMP DP  RH WIND       PRES   REMARKS
MEMPHIS INTL   PTCLDY    54  50  86 CALM      30.18S
NWS MEMPHIS      N/A     51 N/A N/A MISG        N/A
JACKSON        PTCLDY    49  46  90 CALM      30.18F FOG
DYERSBURG      CLEAR     54  43  66 E3        30.20F
UNION CITY     CLEAR     46  46 100 CALM      30.19S
LEXINGTON      CLEAR     46  45  93 CALM      30.17S
$$

TNZ008-025-027-028-033-062-065-066-191000-
NORTH MIDDLE TENNESSEE

CITY           SKY/WX    TMP DP  RH WIND       PRES   REMARKS
NASHVILLE      PTCLDY    53  46  77 NW3       30.19R
CLARKSVILLE    PTCLDY    48  44  86 CALM      30.19S
COOKEVILLE     CLEAR     45  43  93 CALM      30.15S
CROSSVILLE     CLOUDY    49  40  71 N3        30.17R
$$

TNZ061-075-076-078-094-096-097-191000-
SOUTH MIDDLE TENNESSEE

CITY           SKY/WX    TMP DP  RH WIND       PRES   REMARKS
TULLAHOMA      CLEAR     46  43  87 CALM      30.16S
WINCHESTER     CLEAR     46  45  93 CALM      30.16S
MCMINNVILLE    CLEAR     45  45 100 CALM      30.16R
COLUMBIA       CLEAR     46  46 100 CALM      30.16S
$$

TNZ017-018-042-046-047-191000-
NORTHEAST TENNESSEE

CITY           SKY/WX    TMP DP  RH WIND       PRES   REMARKS
TRI CITIES     CLOUDY    50  37  61 CALM      30.13F
ELIZABETHTON   CLOUDY    48  39  71 CALM      30.13F
$$

TNZ012-013-036-069-073-074-191000-
CENTRAL EAST TENNESSEE

CITY           SKY/WX    TMP DP  RH WIND       PRES   REMARKS
KNOXVILLE      CLOUDY    54  41  61 N6        30.11F
OAK RIDGE      CLOUDY    52  42  69 CALM      30.14S
$$

TNZ083-085-099-191000-
SOUTHEAST TENNESSEE

CITY           SKY/WX    TMP DP  RH WIND       PRES   REMARKS
CHATTANOOGA    CLOUDY    53  47  79 CALM      30.12S
$$

SKY/WX REPORTED AS FAIR MEANS FEW OR NO CLOUDS BELOW
12 THOUSAND FEET.




USA.gov is the U.S. government's official web portal to all federal, state and local government web resources and services.